When you browse on this site, cookies collect data to enhance your experience and personalize the content and advertising you see.
Visit our Privacy Policy to learn more. By continuing to use the site, you agree to this use of cookies and data.
  • In United Kingdom
  • List of Countries
  • For 7 days
  • Water Temperature
  • Weather Map
  • Weather Widgets
  • user-avatar
    Login

    Hourly Weather Nuwejba

    Today, 25 August, Sunday

    Time Temperature Precipitation Wind Pressure Humidity
    00:00 +25°C° 0 mm 2 mps 690 mmHg 62%
    01:00 +25°C° 0 mm 1 mps 689 mmHg 64%
    02:00 +24°C° 0 mm 1 mps 689 mmHg 65%
    03:00 +24°C° 0 mm 1 mps 689 mmHg 66%
    04:00 +24°C° 0 mm 1 mps 689 mmHg 66%
    05:00 +23°C° 0 mm 1 mps 689 mmHg 66%
    06:00 +26°C° 0 mm 1 mps 690 mmHg 58%
    07:00 +28°C° 0 mm 1 mps 690 mmHg 50%
    08:00 +30°C° 0 mm 1 mps 691 mmHg 41%
    09:00 +32°C° 0 mm 1 mps 691 mmHg 35%
    10:00 +33°C° 0 mm 1 mps 691 mmHg 29%
    11:00 +35°C° 0 mm 1 mps 691 mmHg 22%
    12:00 +37°C° 0 mm 2 mps 691 mmHg 20%
    13:00 +38°C° 0 mm 3 mps 691 mmHg 18%
    14:00 +40°C° 0 mm 4 mps 690 mmHg 16%
    15:00 +39°C° 0 mm 3 mps 690 mmHg 16%
    16:00 +38°C° 0 mm 3 mps 690 mmHg 16%
    17:00 +38°C° 0 mm 3 mps 690 mmHg 17%
    18:00 +35°C° 0 mm 3 mps 690 mmHg 21%
    19:00 +33°C° 0 mm 4 mps 690 mmHg 26%
    20:00 +30°C° 0 mm 4 mps 690 mmHg 30%
    21:00 +28°C° 0 mm 4 mps 689 mmHg 39%
    22:00 +27°C° 0 mm 3 mps 689 mmHg 48%
    23:00 +25°C° 0 mm 2 mps 689 mmHg 56%

    Tomorrow, 26 August, Monday

    Time Temperature Precipitation Wind Pressure Humidity
    00:00 +25°C° 0 mm 2 mps 689 mmHg 54%
    01:00 +25°C° 0 mm 2 mps 689 mmHg 52%
    02:00 +25°C° 0 mm 2 mps 689 mmHg 50%
    03:00 +24°C° 0 mm 2 mps 689 mmHg 51%
    04:00 +24°C° 0 mm 2 mps 689 mmHg 52%
    05:00 +23°C° 0 mm 1 mps 689 mmHg 52%
    06:00 +26°C° 0 mm 2 mps 689 mmHg 45%
    07:00 +28°C° 0 mm 2 mps 690 mmHg 37%
    08:00 +30°C° 0 mm 2 mps 690 mmHg 30%
    09:00 +32°C° 0 mm 2 mps 691 mmHg 26%
    10:00 +35°C° 0 mm 2 mps 691 mmHg 22%
    11:00 +37°C° 0 mm 2 mps 691 mmHg 19%
    12:00 +38°C° 0 mm 2 mps 691 mmHg 17%
    13:00 +39°C° 0 mm 2 mps 690 mmHg 15%
    14:00 +40°C° 0 mm 2 mps 690 mmHg 14%
    15:00 +39°C° 0 mm 3 mps 690 mmHg 14%
    16:00 +39°C° 0 mm 3 mps 689 mmHg 15%
    17:00 +38°C° 0 mm 4 mps 689 mmHg 16%
    18:00 +35°C° 0 mm 5 mps 689 mmHg 25%
    19:00 +32°C° 0 mm 6 mps 689 mmHg 35%
    20:00 +28°C° 0 mm 7 mps 690 mmHg 44%
    21:00 +27°C° 0 mm 6 mps 690 mmHg 49%
    22:00 +26°C° 0 mm 4 mps 690 mmHg 53%
    23:00 +25°C° 0 mm 3 mps 690 mmHg 58%

    Day after tomorrow, 27 August, Tuesday

    Time Temperature Precipitation Wind Pressure Humidity
    00:00 +25°C° 0 mm 2 mps 689 mmHg 58%
    01:00 +24°C° 0 mm 2 mps 689 mmHg 57%
    02:00 +24°C° 0 mm 2 mps 689 mmHg 57%
    03:00 +23°C° 0 mm 2 mps 689 mmHg 55%
    04:00 +23°C° 0 mm 2 mps 689 mmHg 53%
    05:00 +23°C° 0 mm 2 mps 689 mmHg 51%
    06:00 +25°C° 0 mm 2 mps 689 mmHg 45%
    07:00 +27°C° 0 mm 2 mps 690 mmHg 38%
    08:00 +30°C° 0 mm 3 mps 690 mmHg 31%
    09:00 +31°C° 0 mm 3 mps 690 mmHg 28%
    10:00 +34°C° 0 mm 3 mps 690 mmHg 24%
    11:00 +36°C° 0 mm 3 mps 691 mmHg 21%
    12:00 +37°C° 0 mm 3 mps 690 mmHg 19%
    13:00 +38°C° 0 mm 3 mps 690 mmHg 17%
    14:00 +39°C° 0 mm 3 mps 690 mmHg 15%
    15:00 +39°C° 0 mm 3 mps 690 mmHg 15%
    16:00 +38°C° 0 mm 4 mps 689 mmHg 16%
    17:00 +37°C° 0 mm 4 mps 689 mmHg 16%
    18:00 +34°C° 0 mm 5 mps 689 mmHg 26%
    19:00 +30°C° 0 mm 6 mps 689 mmHg 36%
    20:00 +27°C° 0 mm 7 mps 689 mmHg 45%
    21:00 +26°C° 0 mm 5 mps 689 mmHg 50%
    22:00 +25°C° 0 mm 4 mps 689 mmHg 54%
    23:00 +24°C° 0 mm 3 mps 689 mmHg 59%

    28 August, Wednesday

    Time Temperature Precipitation Wind Pressure Humidity
    00:00 +24°C° 0 mm 3 mps 689 mmHg 59%
    01:00 +23°C° 0 mm 2 mps 689 mmHg 60%
    02:00 +21°C° 0 mm 2 mps 688 mmHg 60%
    03:00 +21°C° 0 mm 2 mps 688 mmHg 61%
    04:00 +20°C° 0 mm 2 mps 688 mmHg 63%
    05:00 +20°C° 0 mm 2 mps 688 mmHg 64%
    06:00 +23°C° 0 mm 2 mps 688 mmHg 51%
    07:00 +25°C° 0 mm 2 mps 689 mmHg 38%
    08:00 +28°C° 0 mm 3 mps 689 mmHg 25%
    09:00 +30°C° 0 mm 3 mps 689 mmHg 22%
    10:00 +33°C° 0 mm 4 mps 689 mmHg 20%
    11:00 +35°C° 0 mm 4 mps 690 mmHg 18%
    12:00 +36°C° 0 mm 4 mps 689 mmHg 17%
    13:00 +37°C° 0 mm 3 mps 689 mmHg 16%
    14:00 +38°C° 0 mm 3 mps 689 mmHg 15%
    15:00 +38°C° 0 mm 4 mps 689 mmHg 16%
    16:00 +37°C° 0 mm 4 mps 688 mmHg 18%
    17:00 +36°C° 0 mm 5 mps 688 mmHg 19%
    18:00 +34°C° 0 mm 5 mps 688 mmHg 28%
    19:00 +30°C° 0 mm 6 mps 688 mmHg 37%
    20:00 +27°C° 0 mm 6 mps 688 mmHg 45%
    21:00 +26°C° 0 mm 5 mps 688 mmHg 49%
    22:00 +25°C° 0 mm 4 mps 688 mmHg 52%
    23:00 +24°C° 0 mm 3 mps 688 mmHg 55%

    29 August, Thursday

    Time Temperature Precipitation Wind Pressure Humidity
    00:00 +24°C° 0 mm 3 mps 688 mmHg 55%
    01:00 +22°C° 0 mm 3 mps 688 mmHg 55%
    02:00 +22°C° 0 mm 3 mps 688 mmHg 55%
    03:00 +21°C° 0 mm 3 mps 688 mmHg 56%
    04:00 +21°C° 0 mm 2 mps 688 mmHg 57%
    05:00 +21°C° 0 mm 2 mps 688 mmHg 58%
    06:00 +24°C° 0 mm 3 mps 688 mmHg 49%
    07:00 +26°C° 0 mm 3 mps 689 mmHg 41%
    08:00 +28°C° 0 mm 3 mps 689 mmHg 32%
    09:00 +30°C° 0 mm 4 mps 689 mmHg 28%
    10:00 +33°C° 0 mm 4 mps 689 mmHg 24%
    11:00 +35°C° 0 mm 4 mps 689 mmHg 19%
    12:00 +36°C° 0 mm 4 mps 689 mmHg 18%
    13:00 +37°C° 0 mm 4 mps 689 mmHg 17%
    14:00 +38°C° 0 mm 3 mps 689 mmHg 16%
    15:00 +38°C° 0 mm 4 mps 688 mmHg 18%
    16:00 +37°C° 0 mm 5 mps 688 mmHg 19%
    17:00 +36°C° 0 mm 6 mps 688 mmHg 21%
    18:00 +34°C° 0 mm 6 mps 688 mmHg 30%
    19:00 +30°C° 0 mm 6 mps 688 mmHg 40%
    20:00 +27°C° 0 mm 6 mps 688 mmHg 50%
    21:00 +26°C° 0 mm 5 mps 688 mmHg 54%
    22:00 +25°C° 0 mm 4 mps 688 mmHg 58%
    23:00 +24°C° 0 mm 3 mps 688 mmHg 62%

    30 August, Friday

    Time Temperature Precipitation Wind Pressure Humidity
    00:00 +22°C° 0 mm 3 mps 688 mmHg 65%
    01:00 +22°C° 0 mm 3 mps 687 mmHg 67%
    02:00 +21°C° 0 mm 3 mps 687 mmHg 69%
    03:00 +21°C° 0 mm 2 mps 687 mmHg 69%
    04:00 +20°C° 0 mm 2 mps 687 mmHg 69%
    05:00 +20°C° 0 mm 2 mps 687 mmHg 69%
    06:00 +22°C° 0 mm 3 mps 688 mmHg 57%
    07:00 +26°C° 0 mm 3 mps 688 mmHg 44%
    08:00 +28°C° 0 mm 3 mps 689 mmHg 32%
    09:00 +32°C° 0 mm 4 mps 689 mmHg 27%
    10:00 +34°C° 0 mm 4 mps 689 mmHg 23%
    11:00 +36°C° 0 mm 4 mps 689 mmHg 19%
    12:00 +37°C° 0 mm 4 mps 689 mmHg 17%
    13:00 +38°C° 0 mm 3 mps 689 mmHg 15%
    14:00 +40°C° 0 mm 3 mps 689 mmHg 14%
    15:00 +39°C° 0 mm 3 mps 688 mmHg 15%
    16:00 +38°C° 0 mm 4 mps 688 mmHg 16%
    17:00 +37°C° 0 mm 4 mps 688 mmHg 17%
    18:00 +34°C° 0 mm 4 mps 688 mmHg 31%
    19:00 +29°C° 0 mm 4 mps 688 mmHg 44%
    20:00 +26°C° 0 mm 4 mps 688 mmHg 58%
    21:00 +25°C° 0 mm 4 mps 688 mmHg 64%
    22:00 +24°C° 0 mm 3 mps 688 mmHg 70%
    23:00 +22°C° 0 mm 3 mps 687 mmHg 76%
    Show more